User: anonymous   Login
Location: Sperry Observatory
(40.6664°N, 74.3236°W)
Time: 18:44:05
(UTC-04:00)
Language:

UOSAT-12 - Orbit

View from above orbital plane
View from above orbital plane
View from above satellite
View from above satellite

Ground track
Ground track

The orbit data is extracted from the following two-line orbital elements,

1 25693U 99021A   18114.52972467 -.00000060  00000-0  11552-4 0  9998
2 25693  64.5558 246.0504 0049372 271.5626  87.9824 14.80793713 26262
Epoch (UTC): 24 April 2018 12:42:48
Eccentricity: 0.0049372
inclination: 64.5558°
perigee height: 592 km
apogee height: 661 km
right ascension of ascending node: 246.0504°
argument of perigee: 271.5626°
revolutions per day: 14.80793713
mean anomaly at epoch: 87.9824°
orbit number at epoch: 2626

The dashed part of the orbit path shows where the satellite is in the earth's shadow,  

DLR